CZ-6A DEB

Satellite information

Favourite Embed

Satellite Type and Status

DEBRISIN ORBIT

Key statistics

Satellite CZ-6A DEB at a glance.

Uptime

969

Days in orbit

Revolutions

≈ 14.5

Per day

Orbit

SSO

Sun Synchronous Orbit

Inclination

98.6

Latest

Satellite identification and parameters

Extended collection of information and parameters for CZ-6A DEB.

Object identification

Identified? True

Debris? True

Object name: CZ-6A DEB

International designator: 2022-151TX

Object number (NORAD): 54982

Object ID (CCSDS): 54982

Country: PEOPLES REPUBLIC OF CHINA (PRC)

Current information (Y/N): Y

RCS size: SMALL

Orbital parameters

Period: 99.534 minutes

Inclination: 98.6044 deg

SMA: 7114.44 km

Apoapsis: 778.271 km

Periapsis: 694.34 km

RAAN: 203.4172 deg

Eccentricy: 0.0058986

Argument of periapsis: 349.4656 deg

Mean anomaly: 10.5295 deg

Mean motion: 14.46743863 rev/day

Mean motion (dot): 0.00006145 rev/day2

B* drag term: 0.001674 1/REarth

Two-line elements (TLE)

Creation date: July 5, 2025, 5:45 p.m.

Reference frame: TEME

Reference center: EARTH

Epoch: July 4, 2025, 11:45 p.m. UTC

TLE line 0: 0 CZ-6A DEB

TLE line 1: 1 54982U 22151TX 25185.98993009 .00006145 00000-0 16740-2 0 9993

TLE line 2: 2 54982 98.6044 203.4172 0058986 349.4656 10.5295 14.46743863137754

Live tracking on map

Real-time ground track for satellite CZ-6A DEB.

In-orbit conjunctions

A list of the most updated potential collisions computed for object CZ-6A DEB.

Target Orbit TCA Probability of collision Miss distance Type
CZ-6A DEB SSO 2024-11-12 17:43:12 0.0005465689 675.0 (m) DEBRIS
TITAN 3C TRANSTAGE DEB LEO 2024-11-09 12:34:52 0.0001205208 710.0 (m) DEBRIS
BLITS SSO 2024-08-10 21:26:05 0.0002511314 854.0 (m) PAYLOAD

Associated space launch

Chinese satellite reported for atmospheric/ocean/environmental/spatial parameter research purposes, details TBD.

CZ-6A DEB was lifted into orbit during the mission ‘Long March 6A | Yunhai 3’, on board a Long March 6A space rocket.

The launch took place on Nov. 11, 2022, 10:52 p.m. from Launch Complex 9A.

For more information about the launch, click the button.

Launch to space Long March 6A | Yunhai 3
Long March 6A | Yunhai 3

Agency: N/A

Status: Launch Successful

Launch date: Nov. 11, 2022, 10:52 p.m. UTC

Rocket: Long March 6A

Launch pad: Launch Complex 9A

Location: Taiyuan Satellite Launch Center, People's Republic of China

...

Latest news about this satellite

There are no fresh news available about this satellite. Check back as we update our databases every day.


Newsletter sign-up

Weekly statistics, charts and insights to help you stay on top of the space industry.